Theta_e
311 310 311 311 309 311 311 312 313 312 312 312 311 310 312 312 310 310 311 311 312 313 313 311 310 309 309 310 310 311 312 312 312 313 320 319 321 323 323 323 322 321 321 320
310 310 311 311 310 310 312 313 312 310 310 311 311 311 309 309 309 312 313 314 314 313 312 311 310 309 309 309 310 311 312 313 312 317 320 320 320 323 323 323 323 322 320 319
312 314 311 311 311 311 310 311 311 312 311 309 309 312 309 309 310 313 313 314 314 314 313 311 309 309 309 309 310 311 313 313 314 316 317 319 321 321 322 322 322 320 319 317
311 311 312 311 312 311 313 310 311 312 314 314 311 317 312 310 309 308 311 312 311 311 311 311 310 309 309 309 309 312 313 314 314 314 316 318 319 321 321 321 319 318 317 316
313 312 312 312 312 311 313 311 311 313 312 311 312 312 315 311 311 310 312 312 312 313 312 312 311 310 309 308 309 312 314 315 316 316 318 319 320 320 320 318 317 315 313 309
312 311 311 312 311 311 309 311 310 309 310 314 312 313 318 312 311 311 312 313 314 314 312 310 310 309 308 307 310 313 314 315 315 316 318 319 319 320 319 316 315 311 308 303
312 311 310 310 311 310 311 312 315 314 312 317 309 311 317 313 312 310 310 313 314 314 311 309 308 307 307 307 310 312 314 314 315 316 318 318 318 319 317 315 314 312 305 299
314 316 310 308 312 313 310 311 314 314 314 314 310 314 313 309 311 313 312 311 312 312 311 309 308 307 307 307 310 312 313 314 315 316 317 317 316 316 315 313 311 308 303 297
312 313 309 308 309 312 310 312 312 312 298 308 313 311 311 309 308 310 308 309 310 311 310 308 307 307 307 307 309 312 313 314 315 316 316 315 315 314 312 308 304 301 296 294
312 315 309 309 310 309 310 309 313 311 312 313 314 313 315 314 313 309 307 306 309 308 307 306 306 306 307 307 309 312 313 315 315 315 315 315 314 311 307 305 301 296 294 293
311 313 311 308 309 310 310 310 311 313 310 312 312 317 309 313 311 308 306 310 309 308 308 308 306 306 306 307 308 311 313 313 313 314 314 313 311 307 303 301 296 294 293 293
311 311 307 310 308 308 309 311 313 317 313 310 311 318 309 308 307 307 309 310 309 308 308 307 306 306 305 305 307 311 312 312 313 313 313 311 309 306 302 298 294 292 292 292
313 315 318 318 313 310 310 310 312 312 311 313 315 318 306 308 307 309 308 308 307 306 306 306 305 305 305 305 305 308 310 311 311 311 310 307 305 302 299 294 292 292 291 291
314 314 314 320 316 312 312 311 311 313 317 315 317 318 314 310 308 308 309 309 308 307 306 306 305 305 305 304 304 305 308 309 309 309 308 305 303 299 295 292 291 291 290 291
314 317 314 315 312 310 311 313 313 313 314 318 318 316 316 314 311 312 311 312 311 308 307 308 307 306 305 304 303 303 306 308 308 307 307 306 301 297 293 291 290 290 290 290
313 318 314 318 315 312 315 311 311 313 314 315 316 316 315 314 314 310 313 313 309 310 312 310 306 305 305 304 304 302 303 305 306 306 306 302 298 294 291 290 289 289 289 289
312 315 315 320 317 316 316 316 315 312 312 313 315 315 314 312 309 312 314 313 311 311 312 311 310 309 308 306 305 304 302 302 304 303 302 299 296 293 291 290 289 288 288 288
313 315 315 319 315 319 316 311 314 315 314 312 312 313 313 312 313 314 313 312 313 313 312 312 312 311 311 307 303 302 301 301 302 301 300 297 294 292 291 290 289 288 288 288
310 313 317 319 319 315 312 305 309 311 314 312 313 311 311 311 309 310 311 312 312 313 312 311 310 309 308 306 303 300 299 299 299 298 297 296 294 292 291 290 289 288 288 288
306 310 313 314 319 319 311 305 305 307 315 306 310 312 312 308 309 312 312 311 311 311 310 310 310 308 306 304 301 299 298 296 296 297 296 295 293 292 291 290 289 288 288 288
307 308 310 314 316 311 301 299 307 312 311 299 307 310 307 306 310 310 310 310 309 308 308 307 307 306 305 303 300 298 296 296 296 295 294 293 292 291 291 290 289 288 288 288
308 309 310 310 313 313 298 301 309 306 302 306 306 308 309 309 309 308 308 307 307 308 308 307 306 305 305 304 303 300 299 297 295 294 293 292 291 291 292 293 290 290 289 288
307 306 307 307 309 304 301 303 306 305 309 308 307 307 307 307 307 307 307 307 308 309 309 309 308 306 305 304 304 303 301 301 299 300 300 299 297 295 293 290 289 289 289 288
302 300 306 306 305 304 303 306 307 308 308 307 308 307 306 306 306 306 307 307 307 306 307 307 308 308 307 306 305 305 305 303 301 301 299 298 297 295 295 293 292 291 289 289
302 300 302 301 299 298 302 304 305 305 305 304 305 304 304 302 303 302 304 305 305 302 302 303 302 302 301 301 300 300 298 297 296 295 294 293 292 291 290 290 290 290 289 289
296 299 303 305 302 303 304 306 305 303 305 302 302 302 303 302 300 301 302 301 299 299 296 296 296 296 297 297 297 297 297 296 295 294 293 292 291 291 290 289 289 288 288 288
Wind_Speed
4 4 7 13 8 4 4 4 5 4 3 4 9 11 17 19 20 24 28 31 37 39 35 32 31 31 30 28 26 24 23 22 23 27 30 30 30 29 28 27 26 24 22 16
4 7 14 4 5 5 3 3 7 6 5 6 10 15 12 11 15 29 38 41 43 41 40 37 37 35 33 28 26 25 24 21 21 24 28 29 28 29 27 26 25 23 20 18
8 5 7 8 5 5 6 6 5 8 4 5 6 10 9 10 23 36 39 46 45 47 46 41 41 39 34 32 29 26 23 21 23 27 27 31 30 30 30 30 28 25 20 18
6 4 6 5 6 8 6 8 6 5 1 5 2 13 7 7 12 9 36 40 42 42 41 41 43 41 38 33 28 25 23 23 23 27 31 31 31 33 32 31 28 25 21 21
8 8 6 5 7 8 7 4 6 1 3 4 2 5 1 4 7 13 25 33 34 36 39 42 43 44 39 32 29 26 25 24 26 27 29 33 36 33 33 31 29 27 23 22
4 1 7 8 3 6 7 5 5 4 1 6 10 8 26 6 8 7 16 20 24 26 31 34 36 43 38 33 30 27 28 27 28 29 34 33 34 35 34 33 31 28 27 27
3 5 3 4 5 2 3 7 2 3 1 8 3 6 19 9 9 9 11 19 16 18 24 30 35 41 39 36 33 31 31 32 32 33 33 36 36 34 34 32 29 31 32 32
8 5 12 7 10 8 8 8 6 7 4 5 2 8 6 8 18 25 24 22 16 18 21 27 31 37 40 37 34 33 33 34 35 35 37 37 37 35 35 34 34 35 35 34
7 6 2 2 2 10 5 7 4 4 2 2 5 8 8 9 12 24 12 13 14 16 22 25 28 36 40 38 35 35 35 36 36 36 36 36 37 36 36 35 35 36 35 33
5 1 1 2 4 4 6 7 2 1 2 5 5 6 8 8 12 9 6 15 17 15 20 24 28 36 38 36 34 35 35 36 35 35 36 37 36 36 37 37 37 37 35 32
5 4 1 4 6 10 4 4 3 4 5 5 3 7 7 6 5 8 9 13 17 18 20 24 28 35 36 35 36 36 38 39 38 38 38 38 37 37 37 37 38 37 34 31
5 4 4 7 3 3 1 8 8 4 6 4 2 16 4 7 4 7 13 9 10 16 18 23 27 33 35 35 36 38 40 41 39 39 40 39 39 39 41 42 41 38 34 31
9 4 2 2 1 3 7 7 15 5 3 9 5 12 3 2 6 9 12 7 6 13 17 22 27 33 36 37 38 40 42 41 40 42 42 41 40 42 44 45 43 40 36 32
15 6 8 9 5 5 7 12 14 16 9 5 22 23 15 5 7 8 8 7 6 11 14 20 25 30 34 37 39 42 44 45 44 43 42 41 42 44 46 46 43 40 37 34
10 10 11 13 4 4 3 11 21 22 27 14 28 21 33 19 12 20 12 11 13 15 17 22 27 30 34 38 40 42 45 46 46 45 45 44 43 47 48 46 44 41 37 34
7 5 8 16 14 7 6 9 21 27 27 23 27 22 27 14 21 15 31 29 21 24 26 26 27 30 33 37 40 43 45 47 48 48 46 45 45 49 48 46 45 41 38 34
6 6 7 23 13 10 8 33 17 15 21 22 22 34 33 10 10 23 34 29 26 27 28 28 27 27 30 34 39 42 46 47 47 47 47 47 48 49 48 47 45 42 39 36
6 17 10 11 7 13 18 4 18 23 24 24 26 31 29 18 30 36 33 27 35 36 35 35 33 32 33 35 37 40 44 46 46 48 49 48 49 49 48 46 45 42 39 37
15 7 10 12 18 11 12 5 9 11 20 24 26 29 35 26 11 28 25 33 35 39 36 31 29 32 34 33 34 36 40 43 46 49 49 48 46 47 47 46 45 43 41 38
9 16 11 4 8 18 10 5 11 6 14 7 22 27 26 9 8 17 15 13 15 17 21 24 26 25 24 26 28 32 37 40 43 45 46 45 46 47 47 46 46 44 42 39
6 5 13 14 10 4 6 5 14 10 7 4 17 23 10 7 15 9 7 12 8 5 5 7 11 13 14 17 20 25 30 33 33 37 41 43 45 45 43 41 41 43 42 41
11 8 6 6 8 11 10 4 12 6 3 2 3 13 17 16 16 13 11 9 5 4 4 5 8 11 12 14 16 19 22 23 27 29 33 35 38 42 43 40 43 43 44 45
3 4 3 6 4 1 25 2 20 5 4 7 10 10 10 10 10 7 8 10 10 8 8 8 11 12 13 15 17 17 18 19 23 24 22 25 29 33 36 39 45 45 45 45
3 4 3 2 4 6 9 21 14 15 18 11 10 11 11 9 8 9 12 12 12 10 11 11 13 13 13 14 15 15 16 19 21 23 24 27 29 31 33 37 42 45 49 50
6 9 5 4 6 10 21 25 24 20 16 16 16 15 13 10 9 11 13 11 10 11 12 12 11 11 10 11 11 12 13 15 16 17 19 22 24 27 30 33 36 41 47 48
5 7 7 9 11 6 9 15 24 24 29 23 18 16 12 11 11 12 13 13 12 11 10 9 10 11 10 10 10 11 12 12 12 14 17 19 21 23 24 26 29 31 35 40
Wind_Direction
150 124 197 210 200 161 152 198 241 247 244 179 234 241 258 246 233 242 244 240 238 237 240 233 231 228 225 225 226 228 230 228 222 212 205 207 212 213 216 213 213 210 224 234
67 225 223 157 174 197 210 241 260 290 234 193 267 258 249 225 232 241 243 244 242 240 237 230 226 225 225 227 228 226 225 224 220 208 205 204 209 206 205 201 198 195 198 218
178 206 168 160 160 171 223 208 232 228 323 248 299 265 231 245 235 248 250 253 252 246 239 230 224 224 223 224 224 223 222 219 213 203 208 200 199 199 193 191 190 190 196 198
239 246 140 164 193 164 236 209 203 242 328 258 9 293 200 228 240 237 250 248 247 244 244 239 228 223 223 222 221 218 215 214 207 203 203 212 208 195 192 190 190 188 186 192
233 169 170 179 196 163 226 138 178 175 203 331 205 283 262 186 248 248 250 253 251 253 249 242 232 227 222 217 218 214 210 208 201 201 197 198 195 195 192 188 185 183 184 188
231 217 163 194 133 162 147 88 59 58 55 268 190 185 285 170 213 251 260 260 262 258 248 241 233 222 215 212 212 210 208 202 201 203 203 200 207 203 192 188 187 185 183 183
157 211 181 158 100 60 121 101 312 319 349 250 351 219 253 306 281 237 257 270 270 255 239 231 223 214 208 209 208 207 204 201 200 205 204 208 201 202 198 193 196 197 186 183
176 267 172 192 184 183 189 159 161 224 216 272 328 241 247 233 262 268 273 275 264 244 238 233 224 213 207 208 210 208 204 202 201 204 207 208 203 204 201 199 197 193 189 184
165 262 163 163 115 151 194 205 171 84 82 351 224 289 291 267 274 267 266 267 260 241 231 226 217 210 206 209 213 211 206 202 204 206 206 208 205 205 206 202 195 191 186 185
196 255 50 158 102 29 158 161 88 34 230 257 274 267 236 275 268 303 254 239 240 229 221 218 213 207 207 212 214 211 208 205 206 209 210 208 208 207 206 201 197 192 189 189
144 153 338 126 205 171 142 178 181 140 156 195 301 258 216 232 267 287 293 283 247 228 220 216 212 208 210 212 214 211 206 205 208 211 210 209 208 206 204 203 197 195 194 192
199 122 172 205 270 209 92 190 170 165 222 240 151 264 180 228 271 296 305 304 253 235 228 220 212 209 211 215 215 214 209 208 212 213 212 211 209 208 205 201 198 197 197 195
166 181 164 226 40 328 210 206 201 118 90 218 176 255 23 290 289 279 285 299 239 222 220 224 219 217 216 216 217 215 214 212 215 216 215 215 213 209 205 201 200 198 198 197
153 167 195 224 178 139 186 196 199 199 213 163 231 262 256 313 300 294 278 299 265 232 229 232 226 224 224 223 221 219 217 215 216 218 220 220 217 210 205 202 202 201 199 200
172 207 203 232 156 149 222 204 205 207 218 204 249 234 256 241 242 251 265 254 251 240 231 232 232 230 226 224 225 223 222 219 218 222 221 222 217 209 206 205 204 202 202 200
187 230 172 249 223 193 225 227 218 215 223 227 246 251 257 206 240 250 256 263 248 246 253 252 244 241 236 231 228 227 225 222 221 220 223 221 215 210 208 206 205 203 202 200
192 187 193 249 222 210 230 237 214 224 227 220 233 240 261 229 224 242 252 253 255 258 262 259 258 255 253 245 235 230 228 225 222 222 221 219 215 213 210 208 207 206 204 202
232 207 200 246 158 217 239 278 221 221 230 223 242 254 258 244 250 256 257 260 266 266 266 264 265 264 263 252 241 233 229 227 223 221 220 217 215 214 213 211 210 209 208 208
229 228 234 227 230 260 284 191 151 171 246 226 225 245 258 253 278 270 271 267 274 275 270 272 270 264 259 251 242 234 230 226 222 221 220 218 217 217 216 214 213 212 211 210
198 225 220 214 233 238 256 197 161 111 244 189 200 234 244 197 240 266 266 264 273 271 268 264 260 260 254 247 238 231 230 226 223 224 224 223 221 220 219 218 217 217 216 217
189 200 223 222 231 263 227 173 142 166 240 217 203 226 193 189 221 214 231 279 270 272 276 261 246 245 244 235 229 227 228 229 229 228 227 225 224 224 223 224 227 222 220 219
183 180 205 215 231 236 156 93 170 206 145 147 199 225 222 232 236 249 246 208 185 171 169 168 173 173 181 197 208 216 223 223 222 225 227 228 227 227 230 229 228 226 227 227
244 205 204 208 215 281 186 155 207 195 222 262 234 229 222 214 205 197 204 203 195 197 210 215 211 197 204 209 216 219 224 229 223 223 230 230 232 232 230 223 225 227 228 230
224 202 211 45 315 257 224 228 242 250 264 260 221 199 199 210 219 236 241 228 224 222 211 208 215 211 216 217 217 224 231 233 233 232 233 232 230 229 229 228 229 228 227 227
204 149 179 260 265 292 272 252 251 237 224 220 209 210 215 223 239 240 238 226 212 197 194 190 192 195 195 200 203 205 211 220 226 228 231 232 233 235 236 237 238 236 235 234
190 182 198 240 204 191 263 267 239 218 226 222 215 216 222 230 228 226 213 205 202 199 182 183 185 185 186 185 179 182 188 201 212 222 226 230 233 236 236 236 238 237 237 235